Flag for Israel Weather past 2 weeks in Netanya, Israel

Now
64 °F

Scattered clouds.


Feels Like: 64 °F
Forecast: 57 / 64 °F
Wind: 12 mph from West

Location: Dov Airport

Current Time: Mar 2, 2015 at 1:56:50 PM

Latest Report: Mar 2, 2015 at 12:50 PM


Visibility: N/A

Pressure: 30.07 "Hg

Humidity: 60%

Dew point: 50 °F

Location of NetanyaLocation

Historic Weather in Netanya — Graph

°F

Netanya temperature yesterday

Maximum temperature yesterday: 64 °F (at 11:50 AM)
Minimum temperature yesterday: 55 °F (at 5:50 AM)
Average temperature yesterday: 62 °F

Past Weeks' High & Low Weather Summary

 TemperatureHumidityPressure
High82 °F (Feb 27, 11:50 AM)94% (Feb 16, 4:00 AM)30.18 "Hg (Feb 16, 4:00 AM)
Low46 °F (Feb 20, 8:50 AM)17% (Feb 27, 11:50 AM)29.65 "Hg (Feb 20, 6:50 AM)
Average60 °F62%29.98 "Hg
* Reported Feb 15 12:50 PM — Mar 2 12:50 PM, Netanya, Weather by CustomWeather, © 2015

Note: Actual official high and low records may vary slightly from our data, if they occured in-between our weather recording intervals... More about our weather records

Advertising

Netanya weather history for previous 24 hours

 ConditionsComfort  
Time TempWeatherWind HumidityBarometerVisibility
12:50 PM
Mon, Mar 2
64 °FScattered clouds.12 mph60%30.07 "HgN/A
11:50 AM64 °FScattered clouds.10 mph60%30.09 "HgN/A
10:50 AM64 °FScattered clouds.8 mph68%30.09 "HgN/A
9:50 AM64 °FScattered clouds.7 mph64%30.09 "HgN/A
8:50 AM63 °FScattered clouds.3 mph68%30.09 "HgN/A
7:50 AM59 °FScattered clouds.6 mph77%30.09 "HgN/A
6:50 AM55 °FPartly sunny.5 mph77%30.07 "HgN/A
5:50 AM55 °FPassing clouds.5 mph77%30.07 "HgN/A
10:50 PM
Sun, Mar 1
61 °FPassing clouds.10 mph72%30.07 "HgN/A
9:50 PM61 °FPassing clouds.9 mph68%30.04 "HgN/A
8:50 PM63 °FPassing clouds.9 mph64%30.07 "HgN/A
7:50 PM63 °FPassing clouds.8 mph64%30.04 "HgN/A
6:50 PM63 °FPassing clouds.8 mph64%30.04 "HgN/A
5:50 PM63 °FClear.9 mph64%30.01 "Hg10 mi
4:50 PM64 °FPassing clouds.9 mph60%30.01 "HgN/A
3:50 PM64 °FPassing clouds.12 mph60%30.01 "HgN/A
2:50 PM64 °FSunny.12 mph60%30.04 "Hg10 mi
1:50 PM64 °FSunny.12 mph60%30.04 "Hg10 mi
Weather by CustomWeather, © 2015

See weather overviewHow to use our weather pages